Regional Weather Roundup
Issued by NWS

Home | Current Version | Previous Version | Graphics & Text | Print | Product List | Glossary Off
Versions: 1 2 3 4 5 6 7 8 9 10 11 12 13 14 15 16 17 18 19 20 21 22 23 24 25 26 27 28 29 30 31 32 33 34 35 36 37 38 39 40 41 42 43 44 45 46 47 48 49 50

000
ASUS43 KMPX 200201
RWRMN
WEATHER ROUNDUP FOR MINNESOTA
NATIONAL WEATHER SERVICE TWIN CITIES/CHANHASSEN MN
800 PM CST MON FEB 19 2018


NOTE: "FAIR" INDICATES FEW OR NO CLOUDS BELOW 12,000 FEET WITH NO
SIGNIFICANT WEATHER AND/OR OBSTRUCTIONS TO VISIBILITY. N/A MEANS
CURRENT SKY AND/OR WEATHER CONDITIONS ARE NOT AVAILABLE.

MNZ060>063-068>070-200300-
   Twin Cities Metro

CITY           SKY/WX    TMP DP  RH WIND       PRES   REMARKS
TWIN CITIES    FRZ DRZL  21  20  96 NE14      29.90F FOG     WCI   8
ST PAUL        CLOUDY    22  19  89 NE14G20   29.92F FOG     WCI   9
CRYSTAL        CLOUDY    19  15  84 N15       29.91S FOG     WCI   5
BLAINE         CLOUDY    19  18  93 NE13G18   29.92F FOG     WCI   7
LAKEVILLE      CLOUDY    19  19 100 NE10G16   29.87F FOG     WCI   8
EDEN PRAIRIE   FRZ RAIN  20  16  84 NE15G21   29.88F FOG     WCI   6
SOUTH ST PAUL  CLOUDY    22  19  89 NE9       29.90S WCI  12
LAKE ELMO      CLOUDY    23  21  93 NE8       29.91S FOG     WCI  14
$$
MNZ001>005-007-008-013>017-022>024-027-028-200300-
   Northwest Minnesota

CITY           SKY/WX    TMP DP  RH WIND       PRES   REMARKS
BEMIDJI        FAIR       8   2  76 N15       30.07F WCI  -9
HALLOCK        MOCLDY     5  -8  56 N9        30.25S WCI  -9
WARROAD        FAIR       7  -6  56 N7        30.21S WCI  -5
THIEF RVR FALL CLOUDY     6  -2  69 N14       30.17F WCI -11
CROOKSTON      FAIR       7   0  72 N15       30.20F WCI -11
FOSSTON        FLURRIES   7   0  72 N13       30.12F WCI  -9
DETROIT LAKES  FLURRIES  12   5  73 N12       30.05F WCI  -2
MOORHEAD       MIX PCPN   7   0  72 N23       30.13S WCI -14
PARK RAPIDS    LGT SNOW  11   5  77 NE7       30.03R WCI   0
MAHNOMEN       CLOUDY     7   2  78 N14       30.09S WCI  -9
$$
MNZ006-009>011-018-025>026-200300-
   North Central Minnesota

CITY           SKY/WX    TMP DP  RH WIND       PRES   REMARKS
BAUDETTE       CLOUDY     7  -3  64 N7        30.16F WCI  -5
FLAG ISLAND    MOCLDY     7  -8  51 N7        30.20F WCI  -5
INTL FALLS     CLOUDY     9  -2  61 NE9       30.15F WCI  -4
WASKISH        CLOUDY    10   0  61 NE7       30.14S WCI   0
BIG FORK       LGT SNOW   9   3  78 NE7       30.09F WCI  -3
LONGVILLE      LGT SNOW  10   7  85 N7        30.04F WCI   0
GRAND RAPIDS   LGT SNOW   9   5  84 N8        30.07F FOG     WCI  -3
CRANE LAKE     CLOUDY     9  -2  61 N5        30.16F WCI   0
ORR            LGT SNOW   7   1  78 NE5       30.08F WCI  -2
COOK           SNOW       9   3  78 NE5       30.10F VSB 1/2 WCI   0
WALKER         LGT SNOW   9   4  82 NE6       30.06S WCI  -1
$$
MNZ012-019>021-037-200300-
   Northeast Minnesota

CITY           SKY/WX    TMP DP  RH WIND       PRES   REMARKS
DULUTH         LGT SNOW  12   7  80 NE12      30.01F VSB 3/4 WCI  -2
ELY            LGT SNOW   7   1  78 NE8       30.08F WCI  -6
HIBBING        LGT SNOW   8   3  80 NE9       30.06F WCI  -5
EVELETH        LGT SNOW N/A N/A N/A NE8       30.07F
DULUTH HARBOR  LGT SNOW  19  16  86 NE28      30.06F VSB 3/4 WCI   1
TWO HARBORS    CLOUDY    16  10  79 N10G17    30.03F WCI   3
G MARAIS ARPRT LGT SNOW   3  -2  78 N13G21    30.04S WCI -14
$$
MNZ029>031-032-039>041-046>048-054>057-064-200300-
   West Central Minnesota

CITY           SKY/WX    TMP DP  RH WIND       PRES   REMARKS
FERGUS FALLS   FLURRIES  12   7  79 NE8G17    30.05S WCI   1
WHEATON        CLOUDY     9   5  85 N16G22    30.06F FOG     WCI  -9
MORRIS         CLOUDY    12   7  79 N14       29.99F WCI  -3
ALEXANDRIA     CLOUDY    12   6  77 NE17G24   29.97S WCI  -5
ELBOW LAKE     CLOUDY    12   7  81 NE14G20   30.01F WCI  -3
WADENA         FLURRIES  10   7  85 NE13      30.01R WCI  -5
GLENWOOD       CLOUDY    12   9  85 NE17G23   29.96S WCI  -5
APPLETON       CLOUDY    16   9  73 N16       29.99F WCI   0
BENSON         FLURRIES  12   9  85 NE14      29.99F WCI  -3
MADISON        LGT SNOW  16  12  86 N13       30.00R WCI   2
WILLMAR        CLOUDY    16  10  79 NE18      29.95F WCI  -1
$$
MNZ033>034-036-042>043-049>051-058-059-200300-
   Central Minnesota

CITY           SKY/WX    TMP DP  RH WIND       PRES   REMARKS
ST CLOUD       CLOUDY    14  11  87 N8        29.95F WCI   3
SAUK CENTRE    FLURRIES  12   8  82 NE14G20   29.97R WCI  -3
PAYNESVILLE    FLURRIES  15  11  87 NE15G22   29.94F WCI  -1
PINE RIVER     FLURRIES  10   3  72 NE12G18   30.06F WCI  -4
BRAINERD       CLOUDY    13   3  64 NE14G24   30.00F WCI  -2
STAPLES        CLOUDY    10   5  79 NE9       30.01R WCI  -2
LONG PRAIRIE   CLOUDY    12   7  79 N15G21    29.97S WCI  -4
LITTLE FALLS     N/A    N/A N/A N/A N6          N/A
LITCHFIELD     CLOUDY    16  16 100 N14G20    29.92F WCI   1
BUFFALO        CLOUDY    18  14  84 N15G21    29.94S WCI   3
MAPLE LAKE     CLOUDY    19  15  86 NE14      29.94F WCI   5
HUTCHINSON     CLOUDY    19  15  85 N14G22    29.91F WCI   5
$$
MNZ037-044-045-052-053-200300-
   East Central Minnesota

CITY           SKY/WX    TMP DP  RH WIND       PRES   REMARKS
PRINCETON      FLURRIES  18  14  86 N12G20    29.95S WCI   5
MORA           FLURRIES  18  12  79 NE8       29.99S WCI   7
CAMBRIDGE      LGT SNOW  19  10  68 N10G18    29.96F WCI   8
RUSH CITY      LGT SNOW  17  13  87 NE13G18   29.96F WCI   3
MOOSE LAKE     LGT SNOW  14  10  85 NE9G17    29.99F WCI   2
HINCKLEY       FLURRIES  19  14  79 NE14G22   29.97F WCI   6
CLOQUET        LGT SNOW  12   7  79 N8        30.01F WCI   1
MCGREGOR       CLOUDY    12   9  85 N14       30.02F WCI  -3
$$
MNZ071>073-080-081-089-090-097-098-200300-
   Southwest Minnesota

CITY           SKY/WX    TMP DP  RH WIND       PRES   REMARKS
MONTEVIDEO     LGT SNOW  14  10  85 NE15      29.96F WCI  -1
GRANITE FALLS  FLURRIES  17  14  87 N14G20    29.96F WCI   3
CANBY          LGT SNOW  14  11  89 N15       29.98S WCI  -1
MARSHALL       LGT SNOW  14  12  92 N13       29.95R FOG     WCI   0
REDWOOD FALLS  CLOUDY    16  14  92 N10       29.92F WCI   4
OLIVIA         CLOUDY    18  16  93 NE14      29.92F WCI   4
PIPESTONE      LGT SNOW  12  10  92 NE20G25   29.86F WCI  -6
WINDOM         HAZE      16   3  57 N15       29.85S VSB 1   WCI   1
WORTHINGTON    FLURRIES  15  12  88 N17       29.86S WCI  -1
JACKSON        CLOUDY    18  14  86 N14       29.85R WCI   4
TRACY          LGT SNOW  16  15  95 N15       29.90S WCI   1
SLAYTON        LGT SNOW  14  12  93 N17       29.87F WCI  -3
$$
MNZ065>067-074>077-082>085-091>093-200300-
   South Central Minnesota

CITY           SKY/WX    TMP DP  RH WIND       PRES   REMARKS
MANKATO        MIX PCPN  20  19  96 MISG      29.85F FOG
NEW ULM        CLOUDY    18  14  86 N13       29.87F WCI   4
ST JAMES       CLOUDY    18  18 100 N12       29.88S FOG     WCI   5
FAIRMONT       CLOUDY    19  18  95 N17       29.85R FOG     WCI   4
GLENCOE        CLOUDY    20  17  87 N10G20    29.89F WCI   8
FARIBAULT      CLOUDY    21  21 100 N12       29.84F FOG     WCI   9
OWATONNA       CLOUDY    25  21  86 N9        29.81S FOG     WCI  15
WASECA         CLOUDY    23  21  93 NE9       29.84S FOG     WCI  13
ALBERT LEA     CLOUDY    25  21  86 N9        29.80R WCI  15
$$
MNZ078>079-086>088-094>096-200300-
   Southeast Minnesota

CITY           SKY/WX    TMP DP  RH WIND       PRES   REMARKS
ROCHESTER      LGT SNOW  24  24 100 N13       29.78S FOG     WCI  12
RED WING       CLOUDY    25  19  80 NE7       29.86F HAZE    WCI  17
STANTON        CLOUDY    24  22  92 N13       29.84F FOG     WCI  12
DODGE CENTER   CLOUDY    21  21 100 N10       29.80R FOG     WCI  10
WINONA         CLOUDY    30  30 100 N5        29.80S FOG     WCI  25
AUSTIN         CLOUDY    25  21  86 N7        29.78R FOG     WCI  17
PRESTON        CLOUDY    28  27  96 N10       29.76S FOG     WCI  19
$$
ABBREVIATIONS USED IN REMARKS
   TC - TEMPERATURES IN CELSIUS
  WCI - WIND CHILL INDEX
   HX - HEAT INDEX
  VSB - VISIBILITY
$$




USA.gov is the U.S. government's official web portal to all federal, state and local government web resources and services.